Location: A�t �Alizem
(31.2076°N, 8.7872°W)
Time: 11:54:34
(UTC+00:00)

Hubble Space Telescope - Visible Passes

Search period start: 28 September 2021 00:00
Search period end: 08 October 2021 00:00
Orbit: 535 x 539 km, 28.5° (Epoch: 27 September)

Date Brightness Start Highest point End Pass type
(mag) Time Alt. Az. Time Alt. Az. Time Alt. Az.
04 Oct 3.6 06:03:37 10° SSE 06:04:34 11° SSE 06:05:30 10° SE visible
05 Oct 3.4 05:51:18 10° S 05:53:25 14° SSE 05:55:32 10° SE visible
06 Oct 3.1 05:39:32 10° SSW 05:42:16 17° SSE 05:45:00 10° ESE visible
07 Oct 2.8 05:28:00 10° SSW 05:31:08 21° SSE 05:34:16 10° ESE visible
